{"data":{"norad_id":60915,"epoch":"2026-09-21T03:10:41.570976Z","epoch_age_seconds":133869,"freshness":"FRESH","line1":"1 60915U 24154N   26264.13242559  .00027380  00000+0  23147-3 0  9997","line2":"2 60915  53.1608 247.5959 0002177  70.7773 289.3480 15.69565807119204","mean_motion":15.69565807,"eccentricity":0.0002177,"inclination_deg":53.1608,"raan_deg":247.5959,"arg_perigee_deg":70.7773,"mean_anomaly_deg":289.348,"bstar":0.00023147,"rev_number":11920,"period_min":91.745117890428,"perigee_km":358.6724844067,"apogee_km":361.60632995439,"semimajor_km":6738.2764071805,"source":"CELESTRAK","updated_at":"2026-09-22T09:00:49.285134Z"}}